Temperature
14 14 14 14 14 14 14 14 14 14 14 15 15 15 15 15 15 15 15 15 15 16 16 16 16 16 16 16 16 16 16 16 16 16 16 16 16 16
14 14 14 14 14 14 14 14 14 14 14 14 15 14 14 14 15 15 15 15 15 15 15 15 15 16 15 15 15 15 15 15 15 15 15 15 15 15
14 14 14 14 14 14 14 14 14 14 14 14 14 14 14 14 14 14 15 15 15 15 15 15 15 15 15 15 15 15 15 15 15 15 15 15 15 15
14 14 14 14 14 14 14 14 14 14 14 14 14 14 14 14 14 14 14 14 15 15 15 15 15 15 15 15 15 15 15 15 15 15 15 15 15 15
14 14 14 14 14 14 14 14 14 14 14 14 14 14 14 14 14 14 14 14 14 14 14 14 14 14 14 14 14 14 15 14 14 14 14 14 14 14
14 14 14 14 14 14 14 14 14 13 13 14 14 14 14 14 14 14 14 14 14 14 14 14 14 14 14 14 14 14 14 14 14 14 14 14 14 14
14 14 14 14 14 14 14 14 14 13 13 13 13 14 14 14 13 13 13 14 13 13 14 14 14 14 14 14 14 14 14 14 14 14 14 14 14 14
14 14 14 14 14 14 14 14 13 13 13 13 13 13 13 13 13 13 13 13 13 13 13 13 13 13 13 13 13 13 13 13 13 13 13 13 13 13
14 14 14 14 14 14 14 14 14 13 13 13 13 13 13 13 13 13 13 13 13 13 13 13 13 13 13 13 13 13 13 13 13 13 13 13 13 13
14 14 14 14 14 14 14 14 14 13 13 13 13 13 13 13 13 13 13 13 13 13 13 12 12 12 12 12 12 12 12 12 12 12 12 12 12 12
14 14 14 14 14 14 13 13 13 13 13 13 13 13 13 13 13 13 13 13 13 12 12 12 12 12 12 12 12 12 12 12 12 12 12 12 12 12
14 14 14 14 13 13 13 13 13 13 13 13 13 13 13 13 13 13 13 12 12 12 12 12 12 12 12 12 12 12 12 12 11 11 11 11 11 11
13 13 13 14 13 13 13 13 13 13 13 13 12 12 12 12 12 12 12 12 12 12 12 12 12 12 11 11 11 11 11 11 11 11 11 11 11 11
13 13 13 13 13 13 13 13 13 12 12 12 12 12 12 12 12 12 12 12 12 12 12 12 12 11 11 11 11 11 11 10 10 10 10 10 10 10
13 13 13 13 13 13 13 12 12 12 12 12 12 12 12 12 12 12 12 12 12 12 11 11 11 11 11 11 11 11 10 10 10 10 10 10 10 10
12 12 12 12 12 12 12 12 12 12 12 12 12 12 12 12 11 11 11 11 11 11 11 11 11 11 11 11 10 10 10 10 9 9 9 9 9 9
12 12 12 12 12 12 12 12 12 12 12 12 12 12 11 11 11 11 11 11 11 11 10 11 10 10 10 10 10 10 10 9 9 9 9 9 9 9
11 11 11 11 11 11 11 11 11 11 11 11 11 11 11 11 11 11 11 10 10 10 10 10 10 10 10 10 10 9 9 9 9 9 9 8 8 8
11 11 11 11 11 11 11 11 11 11 11 11 11 11 11 11 11 10 10 10 10 10 10 10 10 9 9 9 9 9 9 9 8 8 8 8 8 8
10 10 10 10 10 10 10 11 11 10 10 10 10 10 10 10 10 10 10 10 9 9 9 9 9 9 9 9 9 9 8 8 8 8 8 7 7 7
10 10 10 10 10 10 10 10 10 10 10 10 10 10 10 10 10 10 10 9 9 9 9 9 9 9 9 8 8 8 8 8 7 7 7 7 7 6
10 10 9 9 9 9 9 9 9 9 9 9 9 9 9 9 9 9 9 9 9 8 8 8 8 8 8 8 8 7 7 7 7 7 6 6 6 6
9 9 9 9 9 9 9 9 9 9 9 9 9 9 9 9 9 9 8 8 8 8 8 8 8 8 7 7 7 7 7 6 6 6 6 6 5 5
Wind_Speed
2 2 1 1 1 1 0 1 2 0 1 1 0 1 2 4 6 6 6 9 9 9 9 8 8 7 7 8 9 8 7 7 7 8 7 7 7 8
1 2 2 2 1 0 1 1 1 2 1 1 1 1 2 3 6 5 5 10 10 9 9 9 9 8 7 7 8 8 7 6 6 7 7 7 7 6
2 1 2 2 1 1 1 1 1 1 1 1 0 1 2 2 3 3 5 6 7 9 10 9 9 8 8 7 7 7 7 7 6 6 6 6 6 5
2 1 1 1 1 1 1 1 1 2 2 2 1 0 1 2 2 2 3 4 4 8 10 10 9 8 8 8 8 8 7 7 7 7 6 6 5 5
1 1 2 1 1 1 1 1 1 1 1 2 1 1 1 1 2 2 2 2 3 6 9 9 9 8 7 8 8 8 8 8 7 7 6 6 5 5
1 1 1 1 1 1 1 1 1 1 1 1 2 2 1 2 2 2 1 1 2 3 5 6 8 8 7 7 8 8 9 8 8 7 6 6 5 4
1 1 1 2 2 1 0 0 0 1 1 2 2 2 2 2 2 2 3 2 1 2 3 3 4 3 4 6 7 9 9 9 8 7 6 6 5 4
2 2 2 2 3 2 1 1 1 1 2 2 2 2 2 2 2 3 3 2 1 2 3 2 3 3 3 5 8 10 10 9 8 7 6 5 5 5
3 2 2 1 2 3 3 4 2 2 3 2 2 2 2 2 3 3 3 2 3 3 3 2 2 3 3 6 10 10 10 9 8 7 6 5 4 4
4 3 3 1 1 1 2 3 3 3 3 3 3 1 0 1 3 4 4 2 1 1 3 2 2 2 3 5 9 10 10 8 7 7 6 5 4 3
4 3 2 2 2 1 1 2 3 3 3 4 4 4 2 1 2 2 2 3 2 2 1 2 2 2 2 2 6 9 9 8 7 7 6 5 4 2
4 3 3 3 2 2 2 2 3 3 2 3 3 3 3 3 3 3 4 3 2 1 2 2 3 2 2 1 3 5 6 6 7 6 6 5 3 1
3 3 3 5 5 4 4 3 4 3 3 4 4 4 3 3 3 2 2 3 3 2 2 3 2 2 2 2 2 3 4 4 5 3 4 4 3 3
4 3 3 5 6 6 5 6 5 3 2 3 3 4 4 3 3 3 3 3 3 3 3 4 3 3 2 2 2 2 2 3 4 3 4 3 2 2
4 4 5 6 6 6 8 8 6 4 3 4 4 4 4 4 3 3 3 3 2 2 2 3 3 2 3 3 3 3 2 2 3 3 3 2 2 2
5 5 5 6 6 7 6 6 5 5 4 5 4 4 3 3 3 3 3 3 2 1 1 4 3 3 2 2 3 3 3 3 2 3 3 1 1 1
4 3 3 3 5 5 5 5 5 5 5 5 5 5 4 4 3 3 3 3 3 3 2 0 3 4 3 2 2 2 3 2 3 3 2 1 1 1
5 5 6 6 7 7 6 6 6 6 6 5 5 6 5 5 5 4 4 4 4 4 4 3 2 2 1 1 1 3 2 3 2 3 2 2 1 1
6 7 7 7 7 6 6 5 5 5 5 5 6 6 6 5 5 5 4 4 4 4 4 4 4 3 4 3 2 0 3 2 2 2 2 2 3 2
7 7 7 7 6 6 6 5 5 5 5 5 5 5 6 6 5 5 5 5 5 4 4 4 4 5 6 5 3 2 2 3 3 3 2 1 1 2
8 8 7 6 6 6 6 5 5 5 5 5 5 5 5 5 6 6 6 7 6 5 5 5 5 6 3 3 2 2 1 1 3 3 3 2 1 2
8 8 7 7 6 6 5 5 5 5 6 5 5 5 5 5 5 6 6 5 5 5 5 4 4 4 3 4 4 3 3 1 1 2 1 2 3 4
8 7 7 6 6 5 5 6 6 6 5 6 5 5 5 5 5 4 5 5 5 5 4 4 3 3 3 3 3 3 4 3 2 2 1 2 2 3
Wind_Direction
331 322 295 270 278 285 175 153 159 209 256 215 151 188 150 149 163 172 173 180 176 179 183 184 182 182 191 189 184 184 189 194 196 194 197 203 213 220
278 311 319 309 314 283 232 235 184 181 232 245 211 178 161 163 173 176 174 170 178 181 180 180 180 179 182 185 187 185 183 187 191 192 196 203 209 215
274 249 262 271 271 266 240 239 219 166 205 273 256 146 149 149 153 178 166 168 179 185 183 180 181 182 183 187 188 185 186 191 192 191 193 194 200 211
294 307 292 281 246 252 241 239 227 194 179 217 263 3 154 169 168 180 165 165 164 179 181 179 180 184 185 184 184 184 185 189 192 192 191 194 204 209
276 290 294 313 267 230 209 222 255 227 177 179 225 229 195 179 168 177 155 150 160 168 176 178 177 178 182 182 179 180 180 181 184 188 190 192 198 208
275 291 317 7 322 298 224 224 228 231 203 194 217 216 208 195 168 169 165 165 169 154 149 163 170 175 179 179 179 176 175 175 175 177 180 185 191 201
287 230 178 148 122 97 72 281 256 227 214 211 221 210 210 178 185 181 171 174 175 159 143 152 148 148 164 173 172 172 173 175 174 175 181 187 191 198
291 258 203 175 173 183 175 143 156 207 226 222 223 207 211 195 178 174 169 163 200 197 148 164 151 151 146 160 166 165 169 170 170 171 175 183 197 207
282 277 272 222 175 194 216 224 225 234 217 208 216 234 214 200 173 177 178 175 189 195 145 170 159 153 142 151 159 162 165 167 170 173 176 184 200 220
268 261 248 241 227 213 219 213 206 220 222 212 193 213 245 218 185 183 177 159 140 170 143 163 172 165 145 142 164 165 164 165 169 174 177 183 200 220
256 255 250 233 247 231 234 232 198 209 195 175 168 163 159 147 130 126 140 143 170 208 170 149 167 150 145 154 167 168 167 169 172 176 179 180 185 203
246 226 211 213 226 215 223 252 228 221 202 198 197 197 195 192 181 167 164 158 162 190 195 152 167 145 153 159 158 162 162 169 171 173 178 177 170 147
258 238 216 206 214 229 228 229 237 237 221 205 201 201 196 187 191 186 157 159 168 191 182 144 160 153 156 158 167 180 169 161 160 157 172 175 173 155
263 257 232 217 217 227 232 235 239 240 233 217 205 198 195 193 186 171 151 137 136 166 167 146 156 162 153 154 179 173 176 169 156 154 158 157 160 164
256 250 244 238 235 234 230 232 230 221 222 219 210 205 194 183 170 160 150 135 124 97 110 128 144 148 152 169 173 167 171 189 155 147 151 161 188 183
259 264 253 238 236 235 235 232 222 214 211 218 212 203 183 171 176 173 174 168 157 223 70 94 114 140 162 171 164 174 170 172 158 139 132 131 75 132
241 248 244 239 232 230 222 216 214 211 217 221 211 199 193 186 190 181 173 172 183 192 190 104 84 99 126 150 167 175 166 156 156 149 134 145 240 170
231 238 238 233 228 227 223 219 214 213 215 218 211 200 196 194 193 187 182 182 185 185 178 173 149 112 79 28 70 170 165 166 160 153 151 169 221 196
231 235 235 234 231 228 224 220 220 216 213 215 215 204 194 192 187 188 189 186 185 186 183 177 173 172 191 217 256 180 175 179 165 169 184 187 204 210
233 236 236 233 230 226 223 220 219 212 211 212 215 208 197 194 192 191 190 188 189 190 188 183 187 190 196 197 190 219 219 183 180 189 199 173 152 151
239 240 238 233 230 226 223 218 215 212 211 209 210 208 200 196 196 194 189 188 189 192 194 200 200 180 162 136 145 194 239 214 173 174 172 159 187 197
242 240 238 233 225 222 218 212 211 210 208 209 208 208 198 191 194 192 188 187 191 192 191 185 174 164 169 189 197 192 186 181 76 91 118 185 181 196
249 241 237 232 223 216 213 213 214 213 207 204 202 207 200 193 191 191 196 188 181 178 170 173 177 177 182 185 188 187 180 180 176 162 270 257 206 186
Height
1507 1507 1507 1508 1508 1508 1509 1509 1510 1510 1510 1510 1511 1511 1512 1513 1513 1515 1516 1517 1519 1521 1523 1524 1526 1528 1530 1532 1534 1536 1538 1539 1541 1543 1544 1546 1547 1548
1507 1506 1506 1506 1506 1507 1507 1508 1509 1509 1509 1509 1510 1510 1511 1511 1512 1513 1514 1516 1517 1519 1521 1523 1524 1526 1528 1530 1531 1533 1535 1537 1538 1540 1541 1543 1544 1545
1506 1506 1505 1505 1505 1506 1506 1507 1507 1507 1507 1508 1508 1509 1509 1510 1511 1512 1512 1514 1515 1517 1519 1520 1522 1523 1525 1527 1528 1530 1532 1534 1535 1537 1538 1540 1541 1542
1506 1505 1505 1504 1504 1504 1504 1505 1505 1506 1506 1506 1507 1507 1508 1508 1509 1510 1511 1512 1513 1515 1516 1518 1519 1521 1522 1524 1525 1527 1529 1530 1532 1534 1535 1536 1538 1539
1505 1504 1504 1503 1503 1503 1503 1503 1503 1504 1504 1504 1505 1505 1506 1507 1507 1508 1509 1510 1511 1512 1514 1515 1517 1518 1519 1521 1522 1524 1526 1527 1529 1530 1532 1533 1534 1536
1504 1503 1502 1502 1501 1501 1501 1501 1501 1502 1502 1502 1503 1503 1504 1505 1505 1506 1507 1508 1509 1510 1511 1512 1514 1515 1517 1518 1520 1521 1523 1524 1526 1527 1528 1530 1531 1532
1502 1501 1501 1500 1500 1500 1499 1499 1499 1500 1500 1500 1501 1501 1502 1502 1503 1504 1505 1506 1507 1508 1509 1510 1511 1512 1514 1515 1516 1518 1520 1521 1523 1524 1525 1526 1527 1528
1500 1500 1499 1498 1498 1497 1497 1497 1497 1498 1498 1498 1499 1499 1499 1500 1501 1501 1502 1503 1504 1506 1507 1507 1508 1509 1511 1512 1514 1515 1517 1518 1519 1521 1522 1523 1524 1525
1498 1497 1497 1496 1496 1495 1495 1495 1495 1495 1496 1496 1496 1497 1497 1497 1498 1499 1500 1501 1501 1503 1504 1505 1506 1507 1509 1510 1511 1513 1514 1515 1516 1517 1518 1519 1520 1520
1495 1495 1494 1494 1493 1493 1493 1492 1492 1492 1493 1493 1493 1494 1494 1495 1495 1496 1497 1498 1499 1501 1502 1502 1503 1505 1506 1507 1509 1510 1511 1512 1513 1514 1515 1515 1516 1517
1491 1491 1491 1490 1490 1490 1490 1489 1489 1489 1490 1490 1490 1491 1491 1492 1492 1493 1494 1495 1496 1497 1499 1500 1501 1502 1504 1505 1506 1507 1508 1509 1510 1511 1511 1512 1512 1513
1487 1487 1487 1487 1487 1487 1487 1486 1486 1486 1487 1487 1487 1488 1488 1489 1490 1490 1491 1492 1493 1494 1496 1497 1498 1499 1501 1502 1503 1504 1505 1506 1507 1507 1508 1508 1509 1509
1483 1483 1483 1483 1483 1483 1483 1483 1482 1483 1483 1484 1484 1484 1485 1485 1486 1487 1488 1489 1490 1491 1493 1494 1495 1496 1497 1498 1499 1501 1502 1502 1503 1504 1504 1505 1505 1505
1479 1478 1478 1478 1478 1478 1478 1478 1479 1479 1479 1480 1480 1481 1481 1482 1483 1484 1485 1486 1487 1489 1490 1491 1492 1493 1494 1495 1496 1497 1498 1499 1500 1500 1501 1501 1502 1502
1474 1473 1473 1473 1472 1472 1473 1473 1474 1474 1474 1475 1475 1476 1477 1478 1479 1480 1481 1483 1484 1485 1486 1487 1488 1489 1491 1491 1492 1493 1494 1495 1496 1496 1497 1497 1498 1498
1468 1467 1467 1467 1467 1467 1467 1468 1468 1469 1469 1470 1471 1472 1473 1474 1475 1476 1477 1478 1480 1481 1482 1483 1485 1486 1487 1487 1489 1489 1490 1491 1492 1493 1493 1494 1494 1494
1462 1461 1461 1461 1461 1461 1461 1461 1462 1463 1464 1464 1466 1467 1468 1469 1471 1472 1473 1474 1475 1476 1477 1479 1480 1482 1483 1484 1484 1485 1486 1487 1488 1488 1489 1489 1490 1490
1455 1454 1454 1454 1454 1454 1455 1455 1456 1457 1457 1458 1460 1461 1462 1464 1465 1467 1468 1469 1470 1471 1473 1474 1475 1477 1478 1479 1480 1481 1481 1482 1483 1484 1484 1485 1485 1486
1448 1447 1447 1447 1447 1448 1448 1449 1449 1450 1451 1452 1453 1454 1456 1458 1460 1461 1462 1464 1465 1466 1468 1469 1470 1472 1472 1473 1474 1476 1477 1478 1479 1479 1480 1480 1481 1481
1440 1439 1439 1440 1440 1441 1441 1441 1442 1443 1444 1445 1446 1448 1450 1451 1453 1455 1457 1458 1459 1461 1462 1464 1465 1466 1467 1468 1469 1471 1473 1473 1474 1475 1475 1476 1477 1478
1432 1432 1432 1432 1433 1433 1434 1435 1435 1436 1437 1438 1439 1441 1443 1445 1446 1448 1450 1452 1454 1455 1456 1458 1459 1461 1463 1464 1465 1466 1468 1469 1470 1470 1471 1471 1472 1472
1424 1424 1424 1425 1425 1426 1427 1427 1428 1429 1430 1431 1432 1433 1435 1437 1439 1442 1444 1445 1447 1449 1451 1452 1454 1456 1457 1458 1459 1461 1462 1464 1465 1466 1467 1467 1467 1467
1416 1416 1416 1416 1417 1418 1419 1420 1420 1421 1422 1423 1425 1426 1428 1430 1433 1435 1437 1439 1441 1443 1445 1447 1448 1450 1451 1453 1454 1456 1457 1458 1460 1460 1462 1463 1463 1463